Location: Newark
(39.3200°N, 15.5900°E)
Time: 07:03:41
(UTC+00:00)

Hubble Space Telescope - Visible Passes

Search period start: 15 November 2019 00:00
Search period end: 25 November 2019 00:00
Orbit: 536 x 540 km, 28.5° (Epoch: 14 November)

Date Brightness Start Highest point End Pass type
(mag) Time Alt. Az. Time Alt. Az. Time Alt. Az.
19 Nov 3.4 18:07:55 10° SSW 18:08:41 13° SSW 18:08:41 13° SSW visible
20 Nov 3.1 17:57:04 10° SW 17:58:42 16° SSW 17:58:42 16° SSW visible
21 Nov 3.3 16:07:24 10° S 16:08:37 11° SSE 16:09:49 10° SSE visible
21 Nov 2.9 17:46:17 10° SW 17:48:44 17° S 17:48:44 17° S visible
22 Nov 2.8 17:35:33 10° SW 17:38:23 18° S 17:38:46 18° S visible
23 Nov 2.8 17:24:51 10° SW 17:27:41 18° S 17:28:49 16° SSE visible
24 Nov 3.0 17:14:12 10° SW 17:16:59 17° S 17:18:54 13° SSE visible
